Datum;Stunden;Zählung;Temperatur (°C);Min. Temperatur (°C);Max. Temperatur (°C);Windstärke (km/h);Regen (mm);Schnee (mm);Wetter
01.01.2018;00:00;1;8;-;-;32;;;wolkig
01.01.2018;01:00;4;8;-;-;37;;;wolkig
01.01.2018;02:00;6;7;-;-;41;;;Klarer Himmel
01.01.2018;03:00;2;8;-;-;37;;;wolkig
01.01.2018;04:00;0;8;-;-;43;;;teilweise bewölkt
01.01.2018;05:00;0;7;-;-;37;;;teilweise bewölkt
01.01.2018;06:00;3;7;-;-;37;;;teilweise bewölkt
01.01.2018;07:00;5;7;-;-;32;;;teilweise bewölkt
01.01.2018;08:00;3;7;-;-;32;;;wolkig
01.01.2018;09:00;2;6;-;-;41;;;Regen
01.01.2018;10:00;7;7;-;-;22;;;wolkig
01.01.2018;11:00;7;8;-;-;26;;;wolkig
01.01.2018;12:00;16;9;-;-;32;;;teilweise bewölkt
01.01.2018;13:00;21;8;-;-;24;;;wolkig
01.01.2018;14:00;11;8;-;-;22;;;wolkig
01.01.2018;15:00;10;8;-;-;22;;;Regen
01.01.2018;16:00;8;7;-;-;19;;;Regen
01.01.2018;17:00;5;6;-;-;15;;;Regen
01.01.2018;18:00;4;6;-;-;19;;;Regen
01.01.2018;19:00;6;6;-;-;9;;;Regen
01.01.2018;20:00;9;6;-;-;13;;;Regen
01.01.2018;21:00;8;5;-;-;11;;;Regen
01.01.2018;22:00;0;5;-;-;20;;;Regen
01.01.2018;23:00;0;5;-;-;28;;;Regen
02.01.2018;00:00;0;5;-;-;15;;;Regen
02.01.2018;01:00;0;5;-;-;17;;;wolkig
02.01.2018;02:00;0;5;-;-;19;;;wolkig
02.01.2018;03:00;1;5;-;-;15;;;wolkig
02.01.2018;04:00;2;5;-;-;19;;;Regen
02.01.2018;05:00;2;5;-;-;17;;;Regen
02.01.2018;06:00;16;5;-;-;17;;;teilweise bewölkt
02.01.2018;07:00;28;6;-;-;19;;;wolkig
02.01.2018;08:00;31;6;-;-;20;;;Regen
02.01.2018;09:00;28;6;-;-;22;;;wolkig
02.01.2018;10:00;30;6;-;-;19;;;wolkig
02.01.2018;11:00;26;6;-;-;20;;;Regen
02.01.2018;12:00;19;6;-;-;19;;;Regen
02.01.2018;13:00;27;7;-;-;19;;;wolkig
02.01.2018;14:00;35;6;-;-;17;;;wolkig
02.01.2018;15:00;61;6;-;-;19;;;wolkig
02.01.2018;16:00;38;6;-;-;17;;;wolkig
02.01.2018;17:00;28;7;-;-;22;;;wolkig
02.01.2018;18:00;28;7;-;-;22;;;Regen
02.01.2018;19:00;25;6;-;-;24;;;Regen
02.01.2018;20:00;15;6;-;-;32;;;Regen
02.01.2018;21:00;12;6;-;-;33;;;Regen
02.01.2018;22:00;8;6;-;-;30;;;Regen
02.01.2018;23:00;5;7;-;-;26;;;Regen
03.01.2018;00:00;1;7;-;-;26;;;Regen
03.01.2018;01:00;0;8;-;-;30;;;Regen
03.01.2018;02:00;0;8;-;-;30;;;Regen
03.01.2018;03:00;0;8;-;-;33;;;Regen
03.01.2018;04:00;1;10;-;-;30;;;Regen
03.01.2018;05:00;1;10;-;-;41;;;Regen
03.01.2018;06:00;12;10;-;-;35;;;Regen
03.01.2018;07:00;28;10;-;-;28;;;Regen
03.01.2018;08:00;27;6;-;-;35;;;wolkig
03.01.2018;09:00;33;8;-;-;30;;;teilweise bewölkt
03.01.2018;10:00;27;8;-;-;44;;;wolkig
03.01.2018;11:00;26;8;-;-;46;;;Regen
03.01.2018;12:00;15;7;-;-;44;;;Regen
03.01.2018;13:00;31;7;-;-;46;;;Regen
03.01.2018;14:00;31;8;-;-;43;;;Regen
03.01.2018;15:00;31;8;-;-;39;;;Regen
03.01.2018;16:00;20;7;-;-;41;;;Regen
03.01.2018;17:00;20;8;-;-;41;;;wolkig
03.01.2018;18:00;31;8;-;-;33;;;Regen
03.01.2018;19:00;23;8;-;-;33;;;Regen
03.01.2018;20:00;13;7;-;-;37;;;wolkig
03.01.2018;21:00;11;7;-;-;32;;;Regen
03.01.2018;22:00;6;;-;-;;;;
03.01.2018;23:00;3;;-;-;;;;
04.01.2018;00:00;1;;-;-;;;;
04.01.2018;01:00;2;;-;-;;;;
04.01.2018;02:00;1;;-;-;;;;
04.01.2018;03:00;2;;-;-;;;;
04.01.2018;04:00;3;;-;-;;;;
04.01.2018;05:00;1;7;-;-;24;;;wolkig
04.01.2018;06:00;12;8;-;-;28;;;wolkig
04.01.2018;07:00;32;7;-;-;20;;;wolkig
04.01.2018;08:00;41;7;-;-;22;;;Klarer Himmel
04.01.2018;09:00;59;7;-;-;20;;;wolkig
04.01.2018;10:00;29;8;-;-;17;;;wolkig
04.01.2018;11:00;43;7;-;-;17;;;Regen
04.01.2018;12:00;29;7;-;-;17;;;Regen
04.01.2018;13:00;30;8;-;-;15;;;Regen
04.01.2018;14:00;26;8;-;-;22;;;Regen
04.01.2018;15:00;39;8;-;-;19;;;Regen
04.01.2018;16:00;36;10;-;-;19;;;wolkig
04.01.2018;17:00;40;11;-;-;26;;;wolkig
04.01.2018;18:00;31;11;-;-;32;;;wolkig
04.01.2018;19:00;30;11;-;-;32;;;wolkig
04.01.2018;20:00;19;11;-;-;39;;;Regen
04.01.2018;21:00;11;10;-;-;48;;;wolkig
04.01.2018;22:00;4;9;-;-;30;;;wolkig
04.01.2018;23:00;7;9;-;-;32;;;wolkig
05.01.2018;00:00;5;8;-;-;35;;;wolkig
05.01.2018;01:00;1;8;-;-;32;;;wolkig
05.01.2018;02:00;0;8;-;-;28;;;wolkig
05.01.2018;03:00;0;8;-;-;28;;;wolkig
05.01.2018;04:00;1;8;-;-;24;;;Regen
05.01.2018;05:00;2;7;-;-;24;;;wolkig
05.01.2018;06:00;15;8;-;-;37;;;wolkig
05.01.2018;07:00;27;9;-;-;24;;;Regen
05.01.2018;08:00;41;8;-;-;26;;;wolkig
05.01.2018;09:00;51;8;-;-;19;;;wolkig
05.01.2018;10:00;30;9;-;-;20;;;wolkig
05.01.2018;11:00;23;9;-;-;15;;;wolkig
05.01.2018;12:00;41;9;-;-;19;;;wolkig
05.01.2018;13:00;37;9;-;-;17;;;wolkig
05.01.2018;14:00;49;9;-;-;15;;;wolkig
05.01.2018;15:00;38;9;-;-;19;;;wolkig
05.01.2018;16:00;43;9;-;-;13;;;wolkig
05.01.2018;17:00;31;9;-;-;20;;;wolkig
05.01.2018;18:00;41;9;-;-;20;;;wolkig
05.01.2018;19:00;33;9;-;-;24;;;wolkig
05.01.2018;20:00;32;8;-;-;22;;;Klarer Himmel
05.01.2018;21:00;7;5;-;-;15;;;Klarer Himmel
05.01.2018;22:00;3;6;-;-;15;;;Klarer Himmel
05.01.2018;23:00;5;6;-;-;15;;;Klarer Himmel
06.01.2018;00:00;1;5;-;-;17;;;Klarer Himmel
06.01.2018;01:00;2;5;-;-;15;;;Klarer Himmel
06.01.2018;02:00;1;4;-;-;15;;;Klarer Himmel
06.01.2018;03:00;0;4;-;-;19;;;Klarer Himmel
06.01.2018;04:00;0;3;-;-;15;;;Klarer Himmel
06.01.2018;05:00;5;4;-;-;13;;;Klarer Himmel
06.01.2018;06:00;3;4;-;-;13;;;Klarer Himmel
06.01.2018;07:00;2;3;-;-;11;;;Klarer Himmel
06.01.2018;08:00;4;4;-;-;9;;;Klarer Himmel
06.01.2018;09:00;10;3;-;-;6;;;Klarer Himmel
06.01.2018;10:00;18;6;-;-;6;;;Klarer Himmel
06.01.2018;11:00;14;6;-;-;9;;;Klarer Himmel
06.01.2018;12:00;19;7;-;-;4;;;Klarer Himmel
06.01.2018;13:00;12;7;-;-;4;;;Klarer Himmel
06.01.2018;14:00;29;7;-;-;2;;;Klarer Himmel
06.01.2018;15:00;22;7;-;-;9;;;Klarer Himmel
06.01.2018;16:00;36;6;-;-;7;;;Klarer Himmel
06.01.2018;17:00;18;6;-;-;11;;;Klarer Himmel
06.01.2018;18:00;30;6;-;-;13;;;Klarer Himmel
06.01.2018;19:00;31;6;-;-;9;;;Klarer Himmel
06.01.2018;20:00;10;6;-;-;13;;;Klarer Himmel
06.01.2018;21:00;15;6;-;-;17;;;wolkig
06.01.2018;22:00;7;6;-;-;17;;;wolkig
06.01.2018;23:00;0;6;-;-;17;;;wolkig
07.01.2018;00:00;4;5;-;-;22;;;Regen
07.01.2018;01:00;1;4;-;-;20;;;wolkig
07.01.2018;02:00;0;4;-;-;20;;;Regen
07.01.2018;03:00;0;4;-;-;20;;;wolkig
07.01.2018;04:00;1;4;-;-;19;;;wolkig
07.01.2018;05:00;0;4;-;-;22;;;wolkig
07.01.2018;06:00;2;4;-;-;26;;;wolkig
07.01.2018;07:00;1;4;-;-;24;;;wolkig
07.01.2018;08:00;5;4;-;-;24;;;wolkig
07.01.2018;09:00;18;3;-;-;22;;;wolkig
07.01.2018;10:00;27;3;-;-;20;;;wolkig
07.01.2018;11:00;8;3;-;-;22;;;wolkig
07.01.2018;12:00;33;3;-;-;22;;;wolkig
07.01.2018;13:00;26;3;-;-;28;;;wolkig
07.01.2018;14:00;23;3;-;-;24;;;teilweise bewölkt
07.01.2018;15:00;20;3;-;-;20;;;teilweise bewölkt
07.01.2018;16:00;16;3;-;-;22;;;wolkig
07.01.2018;17:00;13;3;-;-;19;;;wolkig
07.01.2018;18:00;15;3;-;-;28;;;wolkig
07.01.2018;19:00;11;2;-;-;24;;;wolkig
07.01.2018;20:00;8;2;-;-;22;;;wolkig
07.01.2018;21:00;13;2;-;-;28;;;wolkig
07.01.2018;22:00;7;2;-;-;24;;;wolkig
07.01.2018;23:00;3;2;-;-;24;;;wolkig
08.01.2018;00:00;1;2;-;-;22;;;wolkig
08.01.2018;01:00;0;2;-;-;24;;;wolkig
08.01.2018;02:00;0;2;-;-;22;;;wolkig
08.01.2018;03:00;0;2;-;-;22;;;wolkig
08.01.2018;04:00;1;2;-;-;28;;;wolkig
08.01.2018;05:00;4;2;-;-;32;;;wolkig
08.01.2018;06:00;19;2;-;-;33;;;wolkig
08.01.2018;07:00;70;2;-;-;32;;;wolkig
08.01.2018;08:00;110;3;-;-;17;;;wolkig
08.01.2018;09:00;83;3;-;-;20;;;wolkig
08.01.2018;10:00;56;3;-;-;22;;;wolkig
08.01.2018;11:00;33;3;-;-;19;;;wolkig
08.01.2018;12:00;56;5;-;-;17;;;wolkig
08.01.2018;13:00;59;5;-;-;17;;;wolkig
08.01.2018;14:00;62;6;-;-;17;;;Klarer Himmel
08.01.2018;15:00;65;5;-;-;19;;;Klarer Himmel
08.01.2018;16:00;69;4;-;-;17;;;Klarer Himmel
08.01.2018;17:00;52;3;-;-;17;;;Klarer Himmel
08.01.2018;18:00;83;3;-;-;17;;;Klarer Himmel
08.01.2018;19:00;41;2;-;-;17;;;Klarer Himmel
08.01.2018;20:00;33;1;-;-;15;;;Klarer Himmel
08.01.2018;21:00;7;2;-;-;13;;;Klarer Himmel
08.01.2018;22:00;19;1;-;-;11;;;Klarer Himmel
08.01.2018;23:00;3;1;-;-;11;;;Klarer Himmel
09.01.2018;00:00;3;1;-;-;11;;;teilweise bewölkt
09.01.2018;01:00;2;1;-;-;13;;;teilweise bewölkt
09.01.2018;02:00;0;1;-;-;13;;;teilweise bewölkt
09.01.2018;03:00;0;0;-;-;11;;;teilweise bewölkt
09.01.2018;04:00;3;0;-;-;11;;;Klarer Himmel
09.01.2018;05:00;5;0;-;-;9;;;Klarer Himmel
09.01.2018;06:00;20;1;-;-;11;;;Klarer Himmel
09.01.2018;07:00;68;0;-;-;11;;;Klarer Himmel
09.01.2018;08:00;123;-1;-;-;7;;;wolkig
09.01.2018;09:00;54;3;-;-;7;;;wolkig
09.01.2018;10:00;89;5;-;-;13;;;wolkig
09.01.2018;11:00;35;6;-;-;17;;;wolkig
09.01.2018;12:00;73;6;-;-;22;;;wolkig
09.01.2018;13:00;51;7;-;-;17;;;wolkig
09.01.2018;14:00;69;7;-;-;24;;;wolkig
09.01.2018;15:00;76;7;-;-;20;;;Klarer Himmel
09.01.2018;16:00;71;7;-;-;15;;;Klarer Himmel
09.01.2018;17:00;57;7;-;-;20;;;Klarer Himmel
09.01.2018;18:00;72;6;-;-;19;;;Klarer Himmel
09.01.2018;19:00;52;6;-;-;15;;;Klarer Himmel
09.01.2018;20:00;33;6;-;-;19;;;Klarer Himmel
09.01.2018;21:00;23;6;-;-;17;;;wolkig
09.01.2018;22:00;22;7;-;-;17;;;wolkig
09.01.2018;23:00;7;7;-;-;19;;;wolkig
10.01.2018;00:00;2;7;-;-;17;;;teilweise bewölkt
10.01.2018;01:00;1;7;-;-;17;;;Regen
10.01.2018;02:00;0;7;-;-;15;;;teilweise bewölkt
10.01.2018;03:00;0;8;-;-;19;;;wolkig
10.01.2018;04:00;1;7;-;-;17;;;wolkig
10.01.2018;05:00;2;8;-;-;17;;;wolkig
10.01.2018;06:00;24;8;-;-;19;;;wolkig
10.01.2018;07:00;68;8;-;-;19;;;Regen
10.01.2018;08:00;107;8;-;-;17;;;Regen
10.01.2018;09:00;82;8;-;-;17;;;wolkig
10.01.2018;10:00;68;8;-;-;19;;;wolkig
10.01.2018;11:00;46;9;-;-;17;;;Klarer Himmel
10.01.2018;12:00;57;9;-;-;20;;;Klarer Himmel
10.01.2018;13:00;46;9;-;-;20;;;wolkig
10.01.2018;14:00;66;10;-;-;22;;;wolkig
10.01.2018;15:00;73;9;-;-;15;;;wolkig
10.01.2018;16:00;72;9;-;-;13;;;wolkig
10.01.2018;17:00;78;9;-;-;11;;;wolkig
10.01.2018;18:00;86;9;-;-;11;;;wolkig
10.01.2018;19:00;59;9;-;-;11;;;Regen
10.01.2018;20:00;42;8;-;-;9;;;wolkig
10.01.2018;21:00;14;8;-;-;13;;;wolkig
10.01.2018;22:00;12;8;-;-;9;;;wolkig
10.01.2018;23:00;7;7;-;-;11;;;Regen
11.01.2018;00:00;2;7;-;-;9;;;Regen
11.01.2018;01:00;2;7;-;-;7;;;wolkig
11.01.2018;02:00;0;5;-;-;7;;;wolkig
11.01.2018;03:00;0;6;-;-;9;;;wolkig
11.01.2018;04:00;4;6;-;-;9;;;wolkig
11.01.2018;05:00;0;6;-;-;6;;;wolkig
11.01.2018;06:00;0;6;-;-;2;;;Nebel
11.01.2018;07:00;6;5;-;-;2;;;wolkig
11.01.2018;08:00;27;5;-;-;4;;;wolkig
11.01.2018;09:00;84;6;-;-;4;;;wolkig
11.01.2018;10:00;127;7;-;-;4;;;wolkig
11.01.2018;11:00;82;8;-;-;9;;;wolkig
11.01.2018;12:00;55;9;-;-;4;;;wolkig
11.01.2018;13:00;59;9;-;-;9;;;wolkig
11.01.2018;14:00;63;8;-;-;7;;;wolkig
11.01.2018;15:00;77;8;-;-;6;;;wolkig
11.01.2018;16:00;71;8;-;-;6;;;wolkig
11.01.2018;17:00;89;8;-;-;6;;;wolkig
11.01.2018;18:00;75;7;-;-;6;;;wolkig
11.01.2018;19:00;102;7;-;-;6;;;wolkig
11.01.2018;20:00;83;6;-;-;6;;;wolkig
11.01.2018;21:00;73;5;-;-;4;;;Nebel
11.01.2018;22:00;37;5;-;-;4;;;Nebel
11.01.2018;23:00;24;6;-;-;6;;;wolkig
12.01.2018;00:00;12;5;-;-;6;;;wolkig
12.01.2018;01:00;10;5;-;-;6;;;Nebel
12.01.2018;02:00;4;4;-;-;7;;;Nebel
12.01.2018;03:00;4;4;-;-;4;;;wolkig
12.01.2018;04:00;0;4;-;-;6;;;Nebel
12.01.2018;05:00;0;4;-;-;6;;;Nebel
12.01.2018;06:00;13;4;-;-;4;;;Nebel
12.01.2018;07:00;85;4;-;-;4;;;Nebel
12.01.2018;08:00;97;4;-;-;6;;;Nebel
12.01.2018;09:00;75;4;-;-;4;;;Nebel
12.01.2018;10:00;76;4;-;-;4;;;wolkig
12.01.2018;11:00;36;4;-;-;6;;;wolkig
12.01.2018;12:00;61;5;-;-;4;;;wolkig
12.01.2018;13:00;68;5;-;-;4;;;wolkig
12.01.2018;14:00;61;5;-;-;2;;;Regen
12.01.2018;15:00;62;5;-;-;2;;;wolkig
12.01.2018;16:00;57;5;-;-;4;;;Regen
12.01.2018;17:00;62;5;-;-;4;;;Regen
12.01.2018;18:00;58;5;-;-;6;;;wolkig
12.01.2018;19:00;30;5;-;-;4;;;Regen
12.01.2018;20:00;23;5;-;-;4;;;wolkig
12.01.2018;21:00;16;5;-;-;2;;;wolkig
12.01.2018;22:00;9;5;-;-;4;;;wolkig
12.01.2018;23:00;9;5;-;-;2;;;wolkig
13.01.2018;00:00;4;5;-;-;4;;;wolkig
13.01.2018;01:00;3;5;-;-;6;;;wolkig
13.01.2018;02:00;2;5;-;-;4;;;Nebel
13.01.2018;03:00;0;4;-;-;4;;;Nebel
13.01.2018;04:00;0;3;-;-;7;;;wolkig
13.01.2018;05:00;0;4;-;-;4;;;wolkig
13.01.2018;06:00;6;4;-;-;4;;;wolkig
13.01.2018;07:00;3;3;-;-;7;;;wolkig
13.01.2018;08:00;21;6;-;-;15;;;wolkig
13.01.2018;09:00;35;6;-;-;17;;;wolkig
13.01.2018;10:00;36;6;-;-;24;;;wolkig
13.01.2018;11:00;36;6;-;-;26;;;wolkig
13.01.2018;12:00;24;6;-;-;28;;;wolkig
13.01.2018;13:00;23;7;-;-;19;;;wolkig
13.01.2018;14:00;34;7;-;-;19;;;wolkig
13.01.2018;15:00;19;7;-;-;17;;;wolkig
13.01.2018;16:00;29;6;-;-;15;;;wolkig
13.01.2018;17:00;15;5;-;-;13;;;teilweise bewölkt
13.01.2018;18:00;23;1;-;-;15;;;teilweise bewölkt
13.01.2018;19:00;23;2;-;-;13;;;teilweise bewölkt
13.01.2018;20:00;19;3;-;-;11;;;wolkig
13.01.2018;21:00;9;4;-;-;9;;;wolkig
13.01.2018;22:00;10;5;-;-;13;;;wolkig
13.01.2018;23:00;1;5;-;-;15;;;wolkig
14.01.2018;00:00;3;5;-;-;19;;;wolkig
14.01.2018;01:00;3;5;-;-;15;;;wolkig
14.01.2018;02:00;0;5;-;-;17;;;wolkig
14.01.2018;03:00;0;4;-;-;20;;;wolkig
14.01.2018;04:00;0;4;-;-;17;;;wolkig
14.01.2018;05:00;0;4;-;-;19;;;wolkig
14.01.2018;06:00;4;4;-;-;13;;;wolkig
14.01.2018;07:00;3;4;-;-;19;;;wolkig
14.01.2018;08:00;3;3;-;-;19;;;wolkig
14.01.2018;09:00;18;3;-;-;17;;;wolkig
14.01.2018;10:00;25;4;-;-;19;;;teilweise bewölkt
14.01.2018;11:00;17;4;-;-;22;;;teilweise bewölkt
14.01.2018;12:00;24;5;-;-;22;;;teilweise bewölkt
14.01.2018;13:00;42;5;-;-;30;;;teilweise bewölkt
14.01.2018;14:00;23;5;-;-;22;;;teilweise bewölkt
14.01.2018;15:00;35;4;-;-;26;;;teilweise bewölkt
14.01.2018;16:00;27;3;-;-;15;;;teilweise bewölkt
14.01.2018;17:00;20;3;-;-;20;;;teilweise bewölkt
14.01.2018;18:00;26;3;-;-;20;;;Klarer Himmel
14.01.2018;19:00;14;3;-;-;22;;;Klarer Himmel
14.01.2018;20:00;7;3;-;-;20;;;Klarer Himmel
14.01.2018;21:00;11;2;-;-;24;;;Klarer Himmel
14.01.2018;22:00;3;2;-;-;26;;;Klarer Himmel
14.01.2018;23:00;4;2;-;-;28;;;Klarer Himmel
15.01.2018;00:00;1;2;-;-;26;;;teilweise bewölkt
15.01.2018;01:00;3;2;-;-;26;;;wolkig
15.01.2018;02:00;0;2;-;-;26;;;teilweise bewölkt
15.01.2018;03:00;0;3;-;-;24;;;wolkig
15.01.2018;04:00;1;3;-;-;24;;;wolkig
15.01.2018;05:00;3;4;-;-;22;;;wolkig
15.01.2018;06:00;14;4;-;-;20;;;wolkig
15.01.2018;07:00;71;3;-;-;24;;;teilweise bewölkt
15.01.2018;08:00;99;3;-;-;28;;;Klarer Himmel
15.01.2018;09:00;71;4;-;-;28;;;wolkig
15.01.2018;10:00;58;5;-;-;24;;;wolkig
15.01.2018;11:00;35;6;-;-;26;;;wolkig
15.01.2018;12:00;72;6;-;-;32;;;Regen
15.01.2018;13:00;61;6;-;-;32;;;Regen
15.01.2018;14:00;49;7;-;-;28;;;Regen
15.01.2018;15:00;44;6;-;-;37;;;Regen
15.01.2018;16:00;57;6;-;-;33;;;Regen
15.01.2018;17:00;52;6;-;-;37;;;Regen
15.01.2018;18:00;64;6;-;-;35;;;Regen
15.01.2018;19:00;39;6;-;-;33;;;wolkig
15.01.2018;20:00;35;7;-;-;22;;;Regen
15.01.2018;21:00;17;7;-;-;37;;;Regen
15.01.2018;22:00;7;7;-;-;30;;;Regen
15.01.2018;23:00;2;7;-;-;24;;;Regen
16.01.2018;00:00;1;7;-;-;26;;;wolkig
16.01.2018;01:00;1;7;-;-;26;;;Regen
16.01.2018;02:00;1;6;-;-;22;;;wolkig
16.01.2018;03:00;0;6;-;-;24;;;wolkig
16.01.2018;04:00;1;6;-;-;32;;;Regen
16.01.2018;05:00;3;6;-;-;28;;;teilweise bewölkt
16.01.2018;06:00;21;6;-;-;28;;;teilweise bewölkt
16.01.2018;07:00;61;7;-;-;26;;;teilweise bewölkt
16.01.2018;08:00;98;7;-;-;24;;;wolkig
16.01.2018;09:00;63;7;-;-;37;;;teilweise bewölkt
16.01.2018;10:00;80;5;-;-;44;;;Gewitter
16.01.2018;11:00;20;4;-;-;24;;;Regen
16.01.2018;12:00;29;4;-;-;17;;;Regen
16.01.2018;13:00;45;4;-;-;19;;;Regen
16.01.2018;14:00;47;4;-;-;15;;;teilweise bewölkt
16.01.2018;15:00;64;4;-;-;41;;;Regen
16.01.2018;16:00;57;4;-;-;32;;;Regen
16.01.2018;17:00;47;3;-;-;26;;;teilweise bewölkt
16.01.2018;18:00;67;1;-;-;17;;;teilweise bewölkt
16.01.2018;19:00;43;2;-;-;17;;;teilweise bewölkt
16.01.2018;20:00;22;2;-;-;20;;;Klarer Himmel
16.01.2018;21:00;17;2;-;-;17;;;teilweise bewölkt
16.01.2018;22:00;17;2;-;-;19;;;Klarer Himmel
16.01.2018;23:00;4;3;-;-;20;;;wolkig
17.01.2018;00:00;3;3;-;-;15;;;teilweise bewölkt
17.01.2018;01:00;1;3;-;-;20;;;wolkig
17.01.2018;02:00;0;4;-;-;35;;;Gewitter
17.01.2018;03:00;0;2;-;-;30;;;Schnee
17.01.2018;04:00;2;3;-;-;17;;;wolkig
17.01.2018;05:00;3;2;-;-;28;;;Schnee
17.01.2018;06:00;16;2;-;-;24;;;wolkig
17.01.2018;07:00;57;2;-;-;28;;;Schnee
17.01.2018;08:00;82;2;-;-;28;;;teilweise bewölkt
17.01.2018;09:00;53;2;-;-;30;;;teilweise bewölkt
17.01.2018;10:00;67;3;-;-;32;;;teilweise bewölkt
17.01.2018;11:00;42;3;-;-;30;;;Regen
17.01.2018;12:00;70;3;-;-;37;;;Regen
17.01.2018;13:00;50;4;-;-;30;;;wolkig
17.01.2018;14:00;54;3;-;-;44;;;Regen
17.01.2018;15:00;45;3;-;-;33;;;teilweise bewölkt
17.01.2018;16:00;50;4;-;-;24;;;Regen
17.01.2018;17:00;69;4;-;-;24;;;teilweise bewölkt
17.01.2018;18:00;58;4;-;-;28;;;Klarer Himmel
17.01.2018;19:00;48;3;-;-;20;;;Klarer Himmel
17.01.2018;20:00;32;4;-;-;24;;;teilweise bewölkt
17.01.2018;21:00;15;3;-;-;20;;;teilweise bewölkt
17.01.2018;22:00;12;4;-;-;22;;;wolkig
17.01.2018;23:00;12;3;-;-;24;;;Klarer Himmel
18.01.2018;00:00;1;3;-;-;20;;;Klarer Himmel
18.01.2018;01:00;2;4;-;-;24;;;Klarer Himmel
18.01.2018;02:00;1;4;-;-;26;;;Klarer Himmel
18.01.2018;03:00;0;5;-;-;32;;;Regen
18.01.2018;04:00;2;4;-;-;28;;;Regen
18.01.2018;05:00;1;3;-;-;39;;;Regen
18.01.2018;06:00;17;4;-;-;32;;;Regen
18.01.2018;07:00;35;7;-;-;52;;;Regen
18.01.2018;08:00;65;8;-;-;50;;;Regen
18.01.2018;09:00;47;10;-;-;46;;;wolkig
18.01.2018;10:00;58;11;-;-;57;;;wolkig
18.01.2018;11:00;24;8;-;-;83;;;wolkig
18.01.2018;12:00;38;6;-;-;56;;;Regen
18.01.2018;13:00;27;6;-;-;41;;;Regen
18.01.2018;14:00;32;5;-;-;32;;;Regen
18.01.2018;15:00;44;6;-;-;39;;;wolkig
18.01.2018;16:00;45;6;-;-;28;;;Regen
18.01.2018;17:00;49;5;-;-;15;;;Regen
18.01.2018;18:00;46;5;-;-;9;;;Regen
18.01.2018;19:00;43;4;-;-;6;;;teilweise bewölkt
18.01.2018;20:00;18;2;-;-;7;;;teilweise bewölkt
18.01.2018;21:00;19;2;-;-;13;;;wolkig
18.01.2018;22:00;9;2;-;-;7;;;wolkig
18.01.2018;23:00;7;2;-;-;7;;;wolkig
19.01.2018;00:00;3;3;-;-;13;;;wolkig
19.01.2018;01:00;2;3;-;-;15;;;wolkig
19.01.2018;02:00;0;3;-;-;20;;;Regen
19.01.2018;03:00;0;2;-;-;17;;;wolkig
19.01.2018;04:00;0;3;-;-;20;;;Regen
19.01.2018;05:00;2;3;-;-;22;;;Regen
19.01.2018;06:00;10;3;-;-;22;;;Regen
19.01.2018;07:00;40;3;-;-;11;;;wolkig
19.01.2018;08:00;71;3;-;-;24;;;Regen
19.01.2018;09:00;70;3;-;-;20;;;teilweise bewölkt
19.01.2018;10:00;64;4;-;-;20;;;teilweise bewölkt
19.01.2018;11:00;30;4;-;-;20;;;wolkig
19.01.2018;12:00;56;5;-;-;22;;;teilweise bewölkt
19.01.2018;13:00;36;5;-;-;22;;;wolkig
19.01.2018;14:00;57;5;-;-;26;;;wolkig
19.01.2018;15:00;54;4;-;-;11;;;teilweise bewölkt
19.01.2018;16:00;51;2;-;-;15;;;teilweise bewölkt
19.01.2018;17:00;63;1;-;-;17;;;teilweise bewölkt
19.01.2018;18:00;42;2;-;-;19;;;teilweise bewölkt
19.01.2018;19:00;33;3;-;-;19;;;wolkig
19.01.2018;20:00;31;3;-;-;19;;;wolkig
19.01.2018;21:00;14;3;-;-;17;;;teilweise bewölkt
19.01.2018;22:00;16;2;-;-;19;;;Klarer Himmel
19.01.2018;23:00;8;2;-;-;19;;;teilweise bewölkt
20.01.2018;00:00;4;2;-;-;19;;;wolkig
20.01.2018;01:00;3;2;-;-;11;;;Schnee
20.01.2018;02:00;2;1;-;-;9;;;wolkig
20.01.2018;03:00;1;3;-;-;20;;;wolkig
20.01.2018;04:00;0;2;-;-;15;;;teilweise bewölkt
20.01.2018;05:00;3;1;-;-;15;;;teilweise bewölkt
20.01.2018;06:00;1;2;-;-;17;;;wolkig
20.01.2018;07:00;2;2;-;-;15;;;teilweise bewölkt
20.01.2018;08:00;21;3;-;-;15;;;wolkig
20.01.2018;09:00;21;3;-;-;15;;;wolkig
20.01.2018;10:00;17;4;-;-;15;;;wolkig
20.01.2018;11:00;38;4;-;-;15;;;wolkig
20.01.2018;12:00;16;4;-;-;19;;;Regen
20.01.2018;13:00;13;3;-;-;15;;;Regen
20.01.2018;14:00;18;3;-;-;13;;;Regen
20.01.2018;15:00;13;3;-;-;11;;;Regen
20.01.2018;16:00;15;3;-;-;11;;;Regen
20.01.2018;17:00;10;3;-;-;11;;;Regen
20.01.2018;18:00;9;3;-;-;7;;;Regen
20.01.2018;19:00;20;3;-;-;4;;;Regen
20.01.2018;20:00;12;3;-;-;4;;;Regen
20.01.2018;21:00;11;3;-;-;7;;;Regen
20.01.2018;22:00;7;3;-;-;7;;;wolkig
20.01.2018;23:00;2;3;-;-;9;;;Regen
21.01.2018;00:00;1;3;-;-;13;;;Regen
21.01.2018;01:00;2;3;-;-;15;;;Regen
21.01.2018;02:00;2;2;-;-;13;;;Regen
21.01.2018;03:00;2;2;-;-;13;;;wolkig
21.01.2018;04:00;0;2;-;-;11;;;wolkig
21.01.2018;05:00;3;2;-;-;15;;;teilweise bewölkt
21.01.2018;06:00;2;2;-;-;13;;;teilweise bewölkt
21.01.2018;07:00;5;2;-;-;13;;;wolkig
21.01.2018;08:00;7;2;-;-;15;;;wolkig
21.01.2018;09:00;14;2;-;-;13;;;wolkig
21.01.2018;10:00;17;3;-;-;11;;;wolkig
21.01.2018;11:00;24;4;-;-;9;;;Regen
21.01.2018;12:00;29;5;-;-;13;;;wolkig
21.01.2018;13:00;15;5;-;-;13;;;teilweise bewölkt
21.01.2018;14:00;27;5;-;-;15;;;wolkig
21.01.2018;15:00;30;5;-;-;9;;;wolkig
21.01.2018;16:00;24;4;-;-;11;;;wolkig
21.01.2018;17:00;10;2;-;-;13;;;Klarer Himmel
21.01.2018;18:00;25;3;-;-;11;;;Klarer Himmel
21.01.2018;19:00;13;3;-;-;13;;;Klarer Himmel
21.01.2018;20:00;7;3;-;-;15;;;Klarer Himmel
21.01.2018;21:00;10;3;-;-;19;;;Klarer Himmel
21.01.2018;22:00;2;3;-;-;22;;;wolkig
21.01.2018;23:00;1;3;-;-;26;;;Regen
22.01.2018;00:00;2;2;-;-;26;;;Regen
22.01.2018;01:00;1;2;-;-;28;;;Regen
22.01.2018;02:00;0;2;-;-;32;;;Regen
22.01.2018;03:00;0;2;-;-;26;;;Regen
22.01.2018;04:00;2;3;-;-;22;;;Regen
22.01.2018;05:00;3;3;-;-;24;;;Regen
22.01.2018;06:00;20;3;-;-;26;;;Regen
22.01.2018;07:00;61;3;-;-;19;;;Regen
22.01.2018;08:00;88;4;-;-;15;;;wolkig
22.01.2018;09:00;67;5;-;-;13;;;wolkig
22.01.2018;10:00;58;7;-;-;7;;;wolkig
22.01.2018;11:00;41;8;-;-;15;;;wolkig
22.01.2018;12:00;64;8;-;-;17;;;wolkig
22.01.2018;13:00;53;8;-;-;15;;;wolkig
22.01.2018;14:00;63;8;-;-;13;;;wolkig
22.01.2018;15:00;57;8;-;-;13;;;wolkig
22.01.2018;16:00;61;8;-;-;11;;;wolkig
22.01.2018;17:00;60;8;-;-;13;;;Regen
22.01.2018;18:00;63;8;-;-;13;;;wolkig
22.01.2018;19:00;40;8;-;-;17;;;wolkig
22.01.2018;20:00;24;7;-;-;19;;;wolkig
22.01.2018;21:00;17;7;-;-;17;;;wolkig
22.01.2018;22:00;11;7;-;-;15;;;wolkig
22.01.2018;23:00;4;7;-;-;13;;;Regen
23.01.2018;00:00;2;6;-;-;13;;;Regen
23.01.2018;01:00;1;6;-;-;15;;;wolkig
23.01.2018;02:00;0;6;-;-;11;;;Regen
23.01.2018;03:00;0;6;-;-;13;;;Regen
23.01.2018;04:00;1;5;-;-;11;;;Regen
23.01.2018;05:00;4;5;-;-;13;;;wolkig
23.01.2018;06:00;16;6;-;-;19;;;wolkig
23.01.2018;07:00;57;6;-;-;13;;;wolkig
23.01.2018;08:00;100;7;-;-;17;;;wolkig
23.01.2018;09:00;78;7;-;-;17;;;wolkig
23.01.2018;10:00;79;7;-;-;17;;;wolkig
23.01.2018;11:00;36;8;-;-;17;;;wolkig
23.01.2018;12:00;64;8;-;-;20;;;wolkig
23.01.2018;13:00;68;9;-;-;26;;;wolkig
23.01.2018;14:00;70;9;-;-;20;;;teilweise bewölkt
23.01.2018;15:00;63;9;-;-;22;;;wolkig
23.01.2018;16:00;83;9;-;-;26;;;Regen
23.01.2018;17:00;65;9;-;-;24;;;wolkig
23.01.2018;18:00;70;9;-;-;24;;;Regen
23.01.2018;19:00;69;9;-;-;26;;;wolkig
23.01.2018;20:00;28;9;-;-;17;;;wolkig
23.01.2018;21:00;21;10;-;-;24;;;wolkig
23.01.2018;22:00;21;10;-;-;26;;;wolkig
23.01.2018;23:00;10;11;-;-;24;;;wolkig
24.01.2018;00:00;3;11;-;-;26;;;wolkig
24.01.2018;01:00;2;11;-;-;24;;;wolkig
24.01.2018;02:00;0;11;-;-;22;;;wolkig
24.01.2018;03:00;1;12;-;-;26;;;wolkig
24.01.2018;04:00;2;12;-;-;24;;;wolkig
24.01.2018;05:00;6;12;-;-;20;;;wolkig
24.01.2018;06:00;15;12;-;-;24;;;wolkig
24.01.2018;07:00;62;12;-;-;24;;;wolkig
24.01.2018;08:00;132;12;-;-;24;;;wolkig
24.01.2018;09:00;66;12;-;-;24;;;wolkig
24.01.2018;10:00;91;12;-;-;26;;;wolkig
24.01.2018;11:00;45;14;-;-;22;;;wolkig
24.01.2018;12:00;64;14;-;-;26;;;wolkig
24.01.2018;13:00;45;14;-;-;30;;;wolkig
24.01.2018;14:00;77;14;-;-;37;;;wolkig
24.01.2018;15:00;58;14;-;-;39;;;wolkig
24.01.2018;16:00;80;13;-;-;33;;;wolkig
24.01.2018;17:00;75;13;-;-;43;;;wolkig
24.01.2018;18:00;79;13;-;-;35;;;wolkig
24.01.2018;19:00;47;13;-;-;32;;;Klarer Himmel
24.01.2018;20:00;48;13;-;-;28;;;wolkig
24.01.2018;21:00;30;12;-;-;33;;;wolkig
24.01.2018;22:00;18;12;-;-;32;;;wolkig
24.01.2018;23:00;10;12;-;-;33;;;wolkig
25.01.2018;00:00;5;12;-;-;33;;;Regen
25.01.2018;01:00;3;9;-;-;20;;;Regen
25.01.2018;02:00;1;8;-;-;19;;;Regen
25.01.2018;03:00;0;8;-;-;15;;;Regen
25.01.2018;04:00;2;8;-;-;19;;;Regen
25.01.2018;05:00;3;8;-;-;17;;;wolkig
25.01.2018;06:00;21;7;-;-;15;;;wolkig
25.01.2018;07:00;63;7;-;-;15;;;wolkig
25.01.2018;08:00;107;8;-;-;13;;;wolkig
25.01.2018;09:00;70;8;-;-;15;;;wolkig
25.01.2018;10:00;75;9;-;-;17;;;wolkig
25.01.2018;11:00;51;9;-;-;19;;;wolkig
25.01.2018;12:00;75;10;-;-;15;;;wolkig
25.01.2018;13:00;52;10;-;-;17;;;wolkig
25.01.2018;14:00;52;10;-;-;17;;;wolkig
25.01.2018;15:00;66;10;-;-;11;;;wolkig
25.01.2018;16:00;85;9;-;-;13;;;wolkig